Portada
METAR-TAF:

METAR-TAF

Aeropuertos :

Aeropuerto Alfonso López Pumarejo

Valledupar, Colombia

latitud: 10-26N, longitud: 073-15W, altitud: 138 m

Observación

El informe se hizo hace 2 horas y 45 minutos, a las 01:00 UTC
Viento 7 kt del este
Temperatura 26°C
Humedad 79%
Presión 1011 hPa
Visibilidad 10 km o más
Escasas nubes a una altura de 1500 ft
Cielo nuboso a una altura de 20000 ft

METAR: SKVP 210100Z 08007KT 9999 FEW015 BKN200 26/22 A2985

Hora: 22:45 (03:45 UTC)


TAF: falta

Observaciones y pronósticos meteorológicos de más de 4000 aeropuertos (mensajes METAR y TAF).

Los puntos amarillos y rojos representan las estaciones disponibles.

Ponga el ratón en el punto deseado para ver el nombre de la estación.

Haga clic para ver las observaciones y los pronósticos meteorológicos.

Para cambiar el mapa : haga clic en los botones verdes con una cruz de color negro para hacer un zoom, en el botón verde con un guión para alejar o en las flechas verdes para mapas adyacentes.


METAR-TAF: